Current Weather Conditions: station ENQR

sailwx.info

See reports from other nearby stations

no recent reports received from weather station ID ENQR

Tides Pressure Air temp Water temp Dewpoint Dewpoint depression Visibility Wind speed Wind direction Waves Ship positions
date/time (UTC)wind fromknots sea level pressurealtimeterstation pressurevisibilityair tempwater tempwave heightnotes
2018-Apr-26 00:50 230 11 5.4 7.0
2018-Apr-26 00:20 220 11 5.4 7.0
2018-Apr-25 23:50 230 11 5.4 7.0
2018-Apr-25 23:20 250 14 5.4 6.0
2018-Apr-25 22:50 230 13 5.4 7.0
2018-Apr-25 22:20 210 13 5.4 7.0
2018-Apr-25 21:50 220 13 5.4 6.0
2018-Apr-25 21:20 210 13 5.4 7.0
2018-Apr-25 20:50 210 15 5.4 7.0
2018-Apr-25 20:20 220 14 5.4 7.0
2018-Apr-25 19:50 210 14 5.4 7.0
2018-Apr-25 19:20 220 14 5.4 7.0
2018-Apr-25 18:50 210 13 5.4 7.0
2018-Apr-25 18:20 210 13 5.4 7.0
2018-Apr-25 17:50 210 13 5.4 7.0
2018-Apr-25 17:20 220 14 5.4 8.0
2018-Apr-25 16:50 210 13 5.4 7.0
2018-Apr-25 16:20 210 9 5.4 7.0
2018-Apr-25 15:50 220 17 5.4 7.0
2018-Apr-25 15:20 220 13 5.4 8.0
2018-Apr-25 14:50 220 13 5.4 8.0
2018-Apr-25 14:20 220 12 5.4 8.0
2018-Apr-25 13:50 210 11 5.4 7.0
2018-Apr-25 13:20 200 8 5.4 7.0
2018-Apr-25 12:50 210 8 5.4 7.0
2018-Apr-25 12:20 220 12 5.4 7.0
2018-Apr-25 11:50 240 12 5.4 7.0
2018-Apr-25 11:20 190 8 5.4 7.0
2018-Apr-25 10:50 160 7 5.4 8.0
2018-Apr-25 10:20 170 6 5.4 7.0
2018-Apr-25 09:50 190 5 5.4 7.0
2018-Apr-25 09:20 200 5 5.4 7.0
2018-Apr-25 08:50 220 5 5.4 7.0
2018-Apr-25 08:20 230 5 5.4 7.0
2018-Apr-25 07:50 250 4 5.4 7.0
2018-Apr-25 07:20 260 5 5.4 7.0
2018-Apr-25 06:50 250 5 5.4 6.0
2018-Apr-25 06:20 5.4 6.0
2018-Apr-25 05:50 300 2 5.4 6.0
2018-Apr-25 05:20 310 5 5.4 6.0
2018-Apr-25 04:50 260 6 5.4 6.0
2018-Apr-25 04:20 260 7 5.4 6.0
2018-Apr-25 03:50 250 7 5.4 6.0
2018-Apr-25 03:20 250 7 5.4 6.0
2018-Apr-25 02:50 250 6 5.4 6.0
2018-Apr-25 02:20 260 9 5.4 6.0
2018-Apr-25 01:50 260 11 5.4 6.0
2018-Apr-25 01:20 250 11 5.4 6.0
2018-Apr-25 00:50 250 13 5.4 6.0
2018-Apr-25 00:20 250 13 5.4 6.0
2018-Apr-24 23:50 250 12 5.4 6.0
2018-Apr-24 23:20 260 14 5.4 6.0
2018-Apr-24 22:50 260 15 5.4 6.0
2018-Apr-24 22:20 270 14 5.4 6.0
2018-Apr-24 21:50 270 14 5.4 6.0
2018-Apr-24 21:20 270 14 5.4 6.0
2018-Apr-24 20:50 260 14 5.4 6.0
2018-Apr-24 20:20 260 15 5.4 6.0
2018-Apr-24 19:50 280 15 5.4 6.0
2018-Apr-24 19:20 280 18 5.4 6.0
2018-Apr-24 18:50 280 19 5.4 6.0
2018-Apr-24 18:20 280 18 5.4 6.0
2018-Apr-24 17:50 280 18 5.4 6.0
2018-Apr-24 17:20 270 20 5.4 6.0
2018-Apr-24 16:50 280 21 5.4 7.0
2018-Apr-24 16:20 280 18 5.4 6.0
2018-Apr-24 15:50 280 19 5.4 6.0
2018-Apr-24 15:20 280 22 5.4 6.0
2018-Apr-24 14:50 280 21 5.4 6.0
2018-Apr-24 14:20 270 18 5.4 6.0
2018-Apr-24 13:50 270 21 5.4 6.0
2018-Apr-24 13:20 270 22 5.4 6.0
2018-Apr-24 12:50 270 22 5.4 7.0
2018-Apr-24 12:20 260 22 5.4 7.0
2018-Apr-24 11:50 270 20 5.4 7.0
2018-Apr-24 11:20 270 20 5.4 7.0
2018-Apr-24 10:50 270 22 5.4 7.0
2018-Apr-24 10:20 270 21 5.4 7.0
2018-Apr-24 09:50 270 24 5.4 7.0
2018-Apr-24 09:20 260 27 2.6 6.0
2018-Apr-24 08:50 250 25 5.4 7.0
2018-Apr-24 08:20 260 26 5.4 7.0
2018-Apr-24 07:50 260 24 5.4 7.0
2018-Apr-24 07:20 260 24 5.4 7.0
2018-Apr-24 06:50 240 20 5.4 7.0
2018-Apr-24 06:20 250 20 5.4 7.0
2018-Apr-24 05:50 250 22 gusting 34 2.7 6.0
2018-Apr-24 05:20 230 25 5.4 7.0
2018-Apr-24 04:50 230 26 5.4 7.0
2018-Apr-24 04:20 230 27 3.2 7.0
2018-Apr-24 03:50 230 26 5.4 7.0
2018-Apr-24 03:20 230 25 5.4 7.0
2018-Apr-24 02:50 230 26 5.4 7.0
2018-Apr-24 02:20 230 27 5.4 7.0